Weather History for Lake Charles Regional, LA

Change the Weather History Date:

Wednesday, May 21, 2014

  Actual Average Record
Temperature  
Mean Temperature 75 °F 77 °F  
Max Temperature 86 °F 86 °F 99 °F (2005)
Min Temperature 63 °F 68 °F 52 °F (1981)
Degree Days  
Heating Degree Days 0 0  
Month to date heating degree days 7 0  
Since 1 July heating degree days 1957 1489  
Cooling Degree Days 10 12  
Month to date cooling degree days 154 200  
Year to date cooling degree days 323 408  
Growing Degree Days 24 (Base 50)    
Moisture  
Dew Point 65 °F    
Average Humidity 74    
Maximum Humidity 100    
Minimum Humidity 48    
Precipitation  
Precipitation 0.00 in 0.17 in 4.20 in (1967)
Month to date precipitation 0.12 3.31  
Year to date precipitation 9.83 18.99  
Snow  
Snow 0.00 in 0.00 in 0.00 in ()
Month to date snowfall 0.0 0.0  
Since 1 July snowfall 0.1 0.1  
Snow Depth 0.00 in    
Sea Level Pressure  
Sea Level Pressure 30.12 in    
Wind  
Wind Speed 6 mph (SSE)    
Max Wind Speed 15 mph    
Max Gust Speed 22 mph    
Visibility 6 miles    
Events Fog    
T = Trace of Precipitation, MM = Missing Value Source: NWS Daily Summary

Daily Weather History Graph

Daily Weather History Graph

Search for Another Location

Airport:

Trip Planner

Search our weather history database for the weather conditions in past years. The results will help you decide how hot, cold, wet, or windy it might be!

Date:

Astronomy

May. 21, 2014 Rise Set
Actual Time 6:15 AM CDT 8:03 PM CDT
Civil Twilight 5:49 AM CDT 8:30 PM CDT
Nautical Twilight 5:17 AM CDT 9:02 PM CDT
Astronomical Twilight 4:43 AM CDT 9:35 PM CDT
Moon 1:26 AM CDT (5/21) 1:15 PM CDT (5/21)
Length of Visible Light 14h 40m
Length of Day
13h 47m
Waning Gibbous, 48% of the Moon is Illuminated
May 21
Waning Gibbous
May 28
New
Jun 5
First Quarter
Jun 12
Full
Jun 19
Last Quarter

Hourly Weather History & Observations

Time (CDT) Temp. Heat Index Dew Point Humidity Pressure Visibility Wind Dir Wind Speed Gust Speed Precip Events Conditions
12:53 AM 66.0 °F - 64.9 °F 96% 30.13 in 6.0 mi SSE 3.5 mph - N/A   Clear
1:13 AM 64.9 °F - 63.0 °F 93% 30.10 in 1.5 mi SE 3.5 mph - N/A   Clear
1:18 AM 64.9 °F - 64.0 °F 97% 30.10 in 0.2 mi SE 3.5 mph - N/A Fog Fog
1:29 AM 66.2 °F - 64.4 °F 94% 30.09 in 1.0 mi SE 3.5 mph - N/A   Mist
1:36 AM 66.0 °F - 64.9 °F 96% 30.09 in 2.0 mi SE 3.5 mph - N/A   Partly Cloudy
1:45 AM 66.0 °F - 64.9 °F 96% 30.09 in 5.0 mi SE 3.5 mph - N/A   Partly Cloudy
1:53 AM 66.0 °F - 64.9 °F 96% 30.11 in 5.0 mi SSE 4.6 mph - N/A   Clear
2:22 AM 64.9 °F - 64.9 °F 100% 30.08 in 2.0 mi SSE 4.6 mph - N/A   Clear
2:29 AM 64.9 °F - 64.0 °F 97% 30.08 in 1.8 mi SE 4.6 mph - N/A   Clear
2:32 AM 64.9 °F - 64.0 °F 97% 30.08 in 3.0 mi SSE 3.5 mph - N/A   Clear
2:53 AM 64.9 °F - 64.0 °F 97% 30.10 in 4.0 mi Calm Calm - N/A   Clear
2:57 AM 64.9 °F - 64.0 °F 97% 30.08 in 1.5 mi Calm Calm - N/A   Clear
3:09 AM 64.9 °F - 64.0 °F 97% 30.08 in 3.0 mi Calm Calm - N/A   Clear
3:29 AM 64.0 °F - 63.0 °F 96% 30.08 in 1.8 mi Calm Calm - N/A   Partly Cloudy
3:42 AM 64.9 °F - 64.0 °F 97% 30.08 in 0.8 mi Calm Calm - N/A   Mist
3:47 AM 64.4 °F - 64.4 °F 100% 30.08 in 1.2 mi Calm Calm - N/A   Partly Cloudy
3:53 AM 64.9 °F - 64.0 °F 97% 30.10 in 1.0 mi Calm Calm - N/A   Partly Cloudy
4:00 AM 64.9 °F - 64.0 °F 97% 30.08 in 0.5 mi Calm Calm - N/A Fog Fog
4:14 AM 64.9 °F - 63.0 °F 93% 30.08 in 2.5 mi Calm Calm - N/A   Scattered Clouds
4:21 AM 64.0 °F - 63.0 °F 96% 30.08 in 9.0 mi Calm Calm - N/A   Scattered Clouds
4:53 AM 64.9 °F - 64.0 °F 97% 30.10 in 2.5 mi Calm Calm - N/A   Clear
5:17 AM 64.9 °F - 64.9 °F 100% 30.08 in 4.0 mi Calm Calm - N/A   Clear
5:27 AM 64.0 °F - 64.0 °F 100% 30.08 in 1.8 mi Calm Calm - N/A   Clear
5:41 AM 63.0 °F - 62.1 °F 97% 30.09 in 0.2 mi Calm Calm - N/A Fog Fog
5:53 AM 64.0 °F - 63.0 °F 96% 30.12 in 1.8 mi Calm Calm - N/A   Scattered Clouds
5:55 AM 64.0 °F - 63.0 °F 96% 30.09 in 3.0 mi Calm Calm - N/A   Scattered Clouds
6:20 AM 64.9 °F - 64.0 °F 97% 30.10 in 5.0 mi Calm Calm - N/A   Mostly Cloudy
6:35 AM 66.9 °F - 66.0 °F 97% 30.10 in 5.0 mi Calm Calm - N/A   Mostly Cloudy
6:53 AM 66.0 °F - 64.9 °F 96% 30.13 in 5.0 mi Calm Calm - N/A   Partly Cloudy
7:53 AM 72.0 °F - 70.0 °F 93% 30.15 in 7.0 mi ESE 4.6 mph - N/A   Clear
8:53 AM 78.1 °F - 70.0 °F 76% 30.17 in 10.0 mi South 6.9 mph - N/A   Partly Cloudy
9:23 AM 80.1 °F 82.7 °F 68.0 °F 67% 30.16 in 10.0 mi South 12.7 mph 18.4 mph N/A   Mostly Cloudy
9:31 AM 81.0 °F 84.1 °F 69.1 °F 67% 30.16 in 10.0 mi South 11.5 mph - N/A   Scattered Clouds
9:53 AM 78.8 °F - 68.0 °F 69% 30.16 in 10.0 mi SSW 9.2 mph - N/A   Mostly Cloudy
10:00 AM 79.0 °F - 68.0 °F 69% 30.16 in 10.0 mi SSW 9.2 mph - N/A   Mostly Cloudy
10:12 AM 78.1 °F - 66.9 °F 68% 30.16 in 10.0 mi SSW 9.2 mph - N/A   Mostly Cloudy
10:19 AM 79.0 °F - 66.0 °F 64% 30.16 in 10.0 mi SSW 12.7 mph - N/A   Scattered Clouds
10:53 AM 82.9 °F 85.0 °F 66.0 °F 56% 30.18 in 10.0 mi SSE 11.5 mph 17.3 mph N/A   Mostly Cloudy
11:53 AM 82.9 °F 85.0 °F 66.0 °F 56% 30.18 in 10.0 mi South 9.2 mph 17.3 mph N/A   Partly Cloudy
12:53 PM 82.4 °F 84.6 °F 66.2 °F 58% 30.16 in 10.0 mi SSW 15.0 mph 21.9 mph N/A   Mostly Cloudy
1:53 PM 86.0 °F 87.3 °F 64.0 °F 48% 30.17 in 10.0 mi South 8.1 mph 17.3 mph N/A   Scattered Clouds
2:53 PM 84.0 °F 85.8 °F 64.9 °F 53% 30.16 in 10.0 mi South 9.2 mph - N/A   Mostly Cloudy
3:53 PM 82.9 °F 85.0 °F 66.0 °F 56% 30.14 in 10.0 mi South 12.7 mph 19.6 mph N/A   Mostly Cloudy
4:53 PM 82.9 °F 84.6 °F 64.9 °F 54% 30.14 in 10.0 mi South 11.5 mph - N/A   Partly Cloudy
5:53 PM 82.9 °F 84.4 °F 64.0 °F 53% 30.13 in 10.0 mi South 10.4 mph - N/A   Partly Cloudy
6:53 PM 80.1 °F 81.9 °F 64.9 °F 60% 30.12 in 10.0 mi South 10.4 mph - N/A   Clear
7:53 PM 77.0 °F - 66.0 °F 69% 30.12 in 10.0 mi South 6.9 mph - N/A   Clear
8:53 PM 73.0 °F - 66.0 °F 79% 30.13 in 10.0 mi South 4.6 mph - N/A   Clear
9:53 PM 70.0 °F - 66.0 °F 87% 30.14 in 10.0 mi SSE 4.6 mph - N/A   Clear
10:53 PM 66.9 °F - 64.9 °F 93% 30.14 in 7.0 mi Calm Calm - N/A   Clear
11:53 PM 66.0 °F - 64.9 °F 96% 30.13 in 6.0 mi SE 4.6 mph - N/A   Clear